Location: Saint-Usage
(47.1052°N, 5.2587°E)
Time: 17:18:58
(UTC+02:00)

ISS - Visible Passes

Search period start: 20 September 2021 00:00
Search period end: 30 September 2021 00:00
Orbit: 419 x 423 km, 51.6° (Epoch: 20 September)

Date Brightness Start Highest point End Pass type
(mag) Time Alt. Az. Time Alt. Az. Time Alt. Az.
20 Sep -3.7 20:54:14 10° WSW 20:57:37 83° NNW 20:59:51 20° ENE visible
20 Sep -1.0 22:31:35 10° WNW 22:32:51 20° WNW 22:32:51 20° WNW visible
21 Sep -3.7 20:07:23 10° SW 20:10:44 70° SSE 20:14:05 10° ENE visible
21 Sep -2.7 21:44:32 10° W 21:47:44 40° N 21:47:52 40° N visible
22 Sep -2.9 20:57:29 10° W 21:00:46 47° NNW 21:02:48 20° NE visible
22 Sep -0.8 22:34:51 10° WNW 22:35:48 17° WNW 22:35:48 17° WNW visible
23 Sep -3.3 20:10:27 10° W 20:13:47 60° NNW 20:17:08 10° ENE visible
23 Sep -2.4 21:47:51 10° WNW 21:50:41 35° NNW 21:50:41 35° NNW visible
24 Sep -2.6 21:00:49 10° WNW 21:04:00 37° N 21:05:32 23° NE visible
24 Sep -0.5 22:37:57 10° WNW 22:38:32 14° WNW 22:38:32 14° WNW visible
25 Sep -2.7 20:13:46 10° W 20:16:59 40° N 20:20:12 10° ENE visible
25 Sep -2.1 21:51:01 10° WNW 21:53:21 33° NNW 21:53:21 33° NNW visible
26 Sep -2.7 21:04:04 10° WNW 21:07:15 38° N 21:08:11 31° NE visible
26 Sep -0.3 22:40:58 10° WNW 22:41:10 11° WNW 22:41:10 11° WNW visible
27 Sep -2.6 20:17:04 10° WNW 20:20:14 36° N 20:23:00 12° ENE visible
27 Sep -1.9 21:54:03 10° WNW 21:55:59 31° NW 21:55:59 31° NW visible
28 Sep -3.4 21:07:08 10° WNW 21:10:27 51° NNE 21:10:49 48° NE visible
29 Sep -3.0 20:20:12 10° WNW 20:23:27 43° NNE 20:25:41 18° ENE visible
29 Sep -1.5 21:57:04 10° WNW 21:58:40 25° WNW 21:58:40 25° WNW visible
